AirNav   Jet Aviation Boston
 
 1043 users online  

29VA Rhynalds Ranch Airport
Remington, Virginia, USA

GOING TO REMINGTON?


FAA INFORMATION EFFECTIVE 29 MARCH 2018

Location

FAA Identifier: 29VA
Lat/Long: 38-31-45.4480N / 077-44-19.9700W
38-31.757467N / 077-44.332833W
38.5292911 / -77.7388806
(estimated)
Elevation: 285 ft. / 87 m (estimated)
Variation: 09W (1985)
From city: 4 miles E of REMINGTON, VA
Time zone: UTC -4 (UTC -5 during Standard Time)
Zip code: 22712

Airport Operations

Airport use: Private use. Permission required prior to landing
Activation date: 08/1985
Control tower: no
ARTCC: WASHINGTON CENTER
FSS: LEESBURG FLIGHT SERVICE STATION
Attendance: UNATNDD
Wind indicator: yes
Segmented circle: no

Airport Communications

WX AWOS-3 at HWY (4 nm N): 120.350 (540-788-4078)
WX AWOS-3 at CJR (6 nm W): 119.325 (540-727-0523)
WX AWOS-3 at RMN (15 nm SE): 126.325 (540-657-8283)
WX AWOS-3PT at HEF (16 nm NE): PHONE 703-361-6160

Nearby radio navigation aids

VOR radial/distance  VOR name  Freq  Var
CSNr145/9.0CASANOVA VORTAC116.3006W
BRVr312/21.5BROOKE VORTAC114.5009W
AMLr216/27.5ARMEL VOR/DME113.5008W
LDNr138/29.3LINDEN VORTAC114.3006W
GVEr038/36.6GORDONSVILLE VORTAC115.6006W
DCAr248/38.4WASHINGTON VOR/DME111.0009W

 
NDB name  Hdg/Dist  Freq  Var  ID
NAILR070/9.035110WMSQ -- ... --.-
SHANNON329/20.823710WEZF . --.. ..-.
GOODWIN LAKE178/25.822708WGDX --. -.. -..-
DAVEE264/30.522309WDAA -.. .- .-
CAVERNS116/35.924509WLUA .-.. ..- .-
OXONN258/36.233211WDCA -.. -.-. .-
GEORGETOWN239/37.532309WGTN --. - -.

Airport Services

Runway Information

Runway 10/28

Dimensions: 2500 x 120 ft. / 762 x 37 m
Surface: turf
RUNWAY 10  RUNWAY 28
Traffic pattern: leftright

Airport Ownership and Management from official FAA records

Ownership: Privately-owned
Owner: DON & DIANE W. RHYNALDS
5350 SAVANNAH BRANCH RD
BEALETON, VA 22712
Phone 540-439-8127
Manager: DON J. RHYNALDS
5350 SAVANNAH BRANCH RD
BEALETON, VA 22712
Phone 540-439-8127

Airport Operational Statistics

Aircraft based on the field: 1
Single engine airplanes: 1
    

Instrument Procedures

There are no published instrument procedures at 29VA.

Some nearby airports with instrument procedures:

KHWY - Warrenton-Fauquier Airport (4 nm N)
KCJR - Culpeper Regional Airport (6 nm W)
KRMN - Stafford Regional Airport (15 nm SE)
KHEF - Manassas Regional Airport/Harry P. Davis Field (16 nm NE)
KNYG - Quantico Marine Corps Airfield / Turner Field (20 nm E)
 
Loc | Ops | Rwys | IFR | FBO | Links
Com | Nav | Svcs | Stats | Notes

AirNav Hotels Sweepstakes
 
Area around 29VA (Rhynalds Ranch Airport)
 
Road maps at: MapQuest Bing Google
 
Aerial photo
No photo
 
Sectional chart

 
Airport distance calculator
Flying to Rhynalds Ranch Airport? Find the distance to fly.

From to 29VA

Sunrise and sunset
Times for 21-Apr-2018
 Local
(UTC-4)
 Zulu
(UTC)
Morning civil twilight06:0010:00
Sunrise06:2810:28
Sunset19:5223:52
Evening civil twilight20:2000:20

Current date and time
Zulu (UTC)  21-Apr-2018 16:42:49
Local (UTC-4)  21-Apr-2018 12:42:49
 
METAR
KHWY 
4nm N 
211615Z AUTO 02003KT 10SM CLR 13/M05 A3045 RMK AO2 T01271046
KHEF 
15nm NE 
211556Z 00000KT 10SM CLR 12/M02 A3047 RMK AO2 SLP330 T01171017 PNO $
KRMN 
15nm SE 
211615Z AUTO 34004KT 10SM CLR 14/M02 A3048 RMK AO2 T01361020
KCJR 
19nm W 
211615Z AUTO 35003KT 10SM CLR 12/M03 A3046 RMK AO2 T01201032
TAF
KNYG 
21nm E 
2021/2121 33012G23KT 9999 SKC 530009 QNH3028INS BECMG 2021/2023 33009KT 510009 QNH3029INS FM210500 34006KT 9999 FEW050 500000 QNH3038INS BECMG 2119/2121 VRB06KT FEW050 SCT180 QNH3034INS T03/2111Z T19/2121Z LAST NO AMDS UNTIL 2309Z
NOTAMs
Click for the latest NOTAMs
NOTAMs are issued by the DoD/FAA and will open in a separate window not controlled by AirNav.

 

 
 

Would you like to see your business listed on this page?

 If your business provides an interesting product or service to pilots, flight crews, aircraft, or users of the Rhynalds Ranch Airport, you should consider listing it here.  To start the listing process, click on the button below
 
Add a business
 

Other Pages about Rhynalds Ranch Airport

Update a link
 
Copyright © AirNav, LLC. All rights reserved. Privacy Policy  Contact